STARLINK-3826, 52347

Orbit data source: Space-Track

STARLINK-3826, 52347 is a payload satellite owned by SpaceX/Seattle (US) in LEO that was launched on Fri, 29 Apr 2022 UTC via an FALCON 9 launch vehicle from the Air Force Eastern Test Range (AFETR). Payload-class satellites include a variety of spacecraft equipped with specific instruments for various scientific and technological missions. These include communications satellites like Starlink; space stations such as the ISS; scientific satellites like the Hubble; Earth observation satellites from companies like Planet Labs, Umbra, and HawkEye 360; GPS; miniature CubeSats for education and research; and military/defense satellites.

Loading next visibility...
Identifier
52347, 2022-045S
Orbit
LEO
Country
Flag of USUS
Related business
Manufacturer
SpaceX/Seattle
Mission
Operational Commercial Communications
Bus & Motor
STARLINK, Unknown motor
Mass
297 kg wet, ~275 kg dry
Launch date (UTC)
2022-04-29 (4 years ago)
Launch vehicle
FALCON 9
Launch site
Air Force Eastern Test Range (AFETR)
Object type
Payload
Rocket body
Debris
Shape & HBR
Box + 1 Pan, 10.1 m
Radar Cross Section
11.087 m², Large (>1 m²)

Expand to show TLE details & history
Last TLE update: 3 days ago

TLE from 3 days ago
0 STARLINK-3826
1 52347U 22045S   26170.53031204  .00000558  00000-0  53141-4 0  9994
2 52347  53.1615 101.8425 0001420  88.7073 271.4081 15.08837710231150
Epoch: 2026-06-19T12:43Z
TLE epoch observation values (Epoch: 2026-06-19T12:43:38.960Z)
Latitude
-0.00002°
Longitude
3.17219°
Altitude
540.618 km
Speed
7.593 km/s
True Right ascension
06h 47m 22s
True Declination
0° 00' 00"
Sunlit
Object was in daylight at epoch
Visualization orbit readout
Latitude
Unknown
Longitude
Unknown
Altitude
Unknown
Speed
Unknown
Apparent Right ascension
Unknown
Apparent Declination
Unknown
Sunlit
N/A
Visualization observer readout
Local Sidereal Time
21:42:46
Azimuth
Unknown
Elevation
Unknown
Doppler factor
Unknown
Orbital elements
Apogee altitude
540.987 km
Perigee altitude
539.022 km
Semi-major axis
6,918.141 km
Eccentricity
0.00014
Inclination
53.1615°
RAAN
101.8425°
Arg. of periapsis
88.7073°
True anomaly
271.39183°
Mean anomaly
271.4081°
Eccentric anomaly
271.39997°
Mean motion
3.77189 °/min
Orbital period
95.44 mins
BSTAR
0.000053141
Loading maneuver chart data...
Computing Atmospheric mass density...
Loading historical data...
Loading historical data...
Loading historical data...
Loading historical data...
Loading historical data...
Loading historical data...
Loading historical data...

Documentation

Showing up to 5 results
|